SKW5907 KDEN-KEGE

Flight info

Callsign SKW5907
Flight time 0h 26m
Altitude 22000
Route ZIMMR4 ZIMMR CULCH
Aircraft E75L/M-SDE3GILORVW/S

Departure

Time 2026-05-05 02:35
Airport Denver International Airport (KDEN)

Arrival

Time 2026-05-05 03:01
Airport Eagle County Regional Airport (KEGE)
Time Latitude Longitude Altitude Speed Heading
2026-05-05 01:55 39.85942 -104.66610 5374 ft 0 kts 180°
2026-05-05 02:20 39.85962 -104.66608 5376 ft 4 kts 199°
2026-05-05 02:20 39.85972 -104.66591 5375 ft 1 kts 270°
2026-05-05 02:24 39.85979 -104.66613 5375 ft 6 kts 294°
2026-05-05 02:24 39.85995 -104.66664 5378 ft 5 kts 291°
2026-05-05 02:24 39.86004 -104.66697 5376 ft 3 kts 284°
2026-05-05 02:25 39.86008 -104.66735 5376 ft 7 kts 275°
2026-05-05 02:25 39.86008 -104.66835 5377 ft 15 kts 268°
2026-05-05 02:25 39.86010 -104.67000 5377 ft 21 kts 270°
2026-05-05 02:25 39.86012 -104.67170 5377 ft 17 kts 271°
2026-05-05 02:26 39.86011 -104.67310 5377 ft 14 kts 270°
2026-05-05 02:26 39.86012 -104.67419 5377 ft 11 kts 271°
2026-05-05 02:26 39.86013 -104.67523 5377 ft 12 kts 271°
2026-05-05 02:26 39.86014 -104.67617 5377 ft 9 kts 271°
2026-05-05 02:27 39.86014 -104.67685 5377 ft 7 kts 270°
2026-05-05 02:27 39.86014 -104.67758 5377 ft 9 kts 270°
2026-05-05 02:27 39.86014 -104.67773 5377 ft 0 kts 270°
2026-05-05 02:28 39.86014 -104.67774 5377 ft 1 kts 270°
2026-05-05 02:28 39.86014 -104.67802 5377 ft 7 kts 270°
2026-05-05 02:28 39.86015 -104.67899 5377 ft 15 kts 270°
2026-05-05 02:28 39.86017 -104.68063 5377 ft 19 kts 271°
2026-05-05 02:29 39.86006 -104.68194 5375 ft 5 kts 223°
2026-05-05 02:29 39.85988 -104.68197 5377 ft 5 kts 182°
2026-05-05 02:29 39.85933 -104.68199 5375 ft 11 kts 185°
2026-05-05 02:29 39.85902 -104.68247 5375 ft 8 kts 270°
2026-05-05 02:30 39.85898 -104.68364 5371 ft 9 kts 246°
2026-05-05 02:30 39.85840 -104.68393 5369 ft 13 kts 185°
2026-05-05 02:30 39.85726 -104.68396 5369 ft 20 kts 180°
2026-05-05 02:30 39.85575 -104.68398 5373 ft 21 kts 180°
2026-05-05 02:31 39.85445 -104.68400 5377 ft 16 kts 180°
2026-05-05 02:31 39.85341 -104.68402 5376 ft 14 kts 182°
2026-05-05 02:31 39.85252 -104.68404 5375 ft 12 kts 185°
2026-05-05 02:31 39.85209 -104.68457 5375 ft 7 kts 256°
2026-05-05 02:32 39.85206 -104.68518 5376 ft 8 kts 269°
2026-05-05 02:32 39.85204 -104.68623 5371 ft 16 kts 268°
2026-05-05 02:32 39.85200 -104.68797 5362 ft 21 kts 269°
2026-05-05 02:32 39.85199 -104.68989 5352 ft 21 kts 268°
2026-05-05 02:33 39.85195 -104.69193 5343 ft 24 kts 269°
2026-05-05 02:33 39.85200 -104.69404 5336 ft 23 kts 272°
2026-05-05 02:33 39.85207 -104.69601 5334 ft 13 kts 282°
2026-05-05 02:33 39.85274 -104.69658 5336 ft 24 kts 358°
2026-05-05 02:34 39.85666 -104.69650 5337 ft 88 kts 359°
2026-05-05 02:34 39.86481 -104.69640 5334 ft 145 kts 358°
2026-05-05 02:34 39.87658 -104.69569 5367 ft 191 kts
2026-05-05 02:34 39.89096 -104.69615 5697 ft 226 kts 358°
2026-05-05 02:35 39.90755 -104.69767 6329 ft 248 kts 356°
2026-05-05 02:35 39.92334 -104.70411 7627 ft 235 kts 334°
2026-05-05 02:35 39.93569 -104.71755 8631 ft 231 kts 311°
2026-05-05 02:35 39.94369 -104.73644 9092 ft 254 kts 290°
2026-05-05 02:36 39.94457 -104.76112 9116 ft 293 kts 260°
2026-05-05 02:36 39.94066 -104.78686 10021 ft 294 kts 264°
2026-05-05 02:36 39.93908 -104.81377 10710 ft 307 kts 266°
2026-05-05 02:36 39.93688 -104.84291 10378 ft 339 kts 264°
2026-05-05 02:37 39.93405 -104.87393 10031 ft 343 kts 265°
2026-05-05 02:37 39.93168 -104.90426 10448 ft 333 kts 263°
2026-05-05 02:37 39.93071 -104.93257 10977 ft 301 kts 274°
2026-05-05 02:37 39.93194 -104.96025 11223 ft 312 kts 273°
2026-05-05 02:38 39.93280 -104.98843 12335 ft 305 kts 273°
2026-05-05 02:38 39.93358 -105.01565 13743 ft 293 kts 273°
2026-05-05 02:38 39.93429 -105.04194 14758 ft 290 kts 272°
2026-05-05 02:38 39.93499 -105.06836 15755 ft 290 kts 272°
2026-05-05 02:39 39.93559 -105.09469 16666 ft 291 kts 272°
2026-05-05 02:39 39.93619 -105.12119 17497 ft 294 kts 272°
2026-05-05 02:39 39.93678 -105.14798 18262 ft 298 kts 272°
2026-05-05 02:39 39.93738 -105.17517 18910 ft 302 kts 272°
2026-05-05 02:40 39.93798 -105.20273 19572 ft 307 kts 272°
2026-05-05 02:40 39.93863 -105.23071 20241 ft 311 kts 273°
2026-05-05 02:40 39.94071 -105.25852 20889 ft 315 kts 277°
2026-05-05 02:40 39.94318 -105.28711 21516 ft 320 kts 276°
2026-05-05 02:41 39.94560 -105.31621 22068 ft 327 kts 276°
2026-05-05 02:41 39.94807 -105.34604 22032 ft 332 kts 276°
2026-05-05 02:41 39.95045 -105.37577 21970 ft 328 kts 276°
2026-05-05 02:41 39.95279 -105.40525 21933 ft 329 kts 276°
2026-05-05 02:42 39.95524 -105.43578 21989 ft 346 kts 276°
2026-05-05 02:42 39.95775 -105.46736 22027 ft 354 kts 276°
2026-05-05 02:42 39.96027 -105.49906 22070 ft 358 kts 276°
2026-05-05 02:42 39.96284 -105.53154 21991 ft 362 kts 276°
2026-05-05 02:43 39.96539 -105.56419 21888 ft 362 kts 276°
2026-05-05 02:43 39.96790 -105.59679 21881 ft 362 kts 276°
2026-05-05 02:43 39.97039 -105.62944 21874 ft 362 kts 276°
2026-05-05 02:43 39.97289 -105.66213 21871 ft 362 kts 276°
2026-05-05 02:44 39.97492 -105.69435 21832 ft 348 kts 274°
2026-05-05 02:44 39.97654 -105.72503 21791 ft 331 kts 275°
2026-05-05 02:44 39.97812 -105.75421 21724 ft 315 kts 274°
2026-05-05 02:44 39.97962 -105.78197 21694 ft 299 kts 275°
2026-05-05 02:45 39.98100 -105.80777 21780 ft 279 kts 274°
2026-05-05 02:45 39.98233 -105.83232 21845 ft 266 kts 274°
2026-05-05 02:45 39.98362 -105.85606 21907 ft 262 kts 274°
2026-05-05 02:45 39.98492 -105.87997 21914 ft 265 kts 275°
2026-05-05 02:46 39.98623 -105.90408 21911 ft 268 kts 274°
2026-05-05 02:46 39.98755 -105.92832 21909 ft 269 kts 275°
2026-05-05 02:46 39.98887 -105.95267 21919 ft 269 kts 274°
2026-05-05 02:46 39.99019 -105.97703 21955 ft 270 kts 275°
2026-05-05 02:47 39.99150 -106.00110 21960 ft 269 kts 274°
2026-05-05 02:47 39.99281 -106.02556 21974 ft 270 kts 274°
2026-05-05 02:47 39.99415 -106.05001 21948 ft 271 kts 274°
2026-05-05 02:47 39.99544 -106.07447 21939 ft 270 kts 274°
2026-05-05 02:48 39.99674 -106.09928 21506 ft 281 kts 274°
2026-05-05 02:48 39.99809 -106.12469 21241 ft 276 kts 274°
2026-05-05 02:48 39.99939 -106.14937 20994 ft 272 kts 274°
2026-05-05 02:48 40.00067 -106.17374 20656 ft 272 kts 274°
2026-05-05 02:49 40.00195 -106.19830 20325 ft 271 kts 274°
2026-05-05 02:49 40.00322 -106.22276 19953 ft 270 kts 274°
2026-05-05 02:49 40.00448 -106.24710 19602 ft 268 kts 275°
2026-05-05 02:49 40.00574 -106.27126 19258 ft 266 kts 274°
2026-05-05 02:50 40.00697 -106.29529 18909 ft 265 kts 275°
2026-05-05 02:50 40.00819 -106.31923 18560 ft 264 kts 275°
2026-05-05 02:50 40.00940 -106.34306 18216 ft 263 kts 275°
2026-05-05 02:50 40.01059 -106.36657 17816 ft 263 kts 274°
2026-05-05 02:51 40.01178 -106.39013 17512 ft 259 kts 274°
2026-05-05 02:51 40.01291 -106.41343 17154 ft 256 kts 271°
2026-05-05 02:51 40.00874 -106.43566 16722 ft 257 kts 238°
2026-05-05 02:51 39.99608 -106.45179 16531 ft 253 kts 221°
2026-05-05 02:52 39.98196 -106.46569 16179 ft 256 kts 221°
2026-05-05 02:52 39.96769 -106.47983 15830 ft 258 kts 221°
2026-05-05 02:52 39.95820 -106.48920 15602 ft 259 kts 221°
2026-05-05 02:52 39.93913 -106.50798 15093 ft 260 kts 222°
2026-05-05 02:53 39.92475 -106.52203 14806 ft 257 kts 223°
2026-05-05 02:53 39.91051 -106.53615 14439 ft 258 kts 223°
2026-05-05 02:53 39.89618 -106.55029 14058 ft 258 kts 223°
2026-05-05 02:53 39.88201 -106.56454 13793 ft 257 kts 224°
2026-05-05 02:54 39.87271 -106.57411 13524 ft 258 kts 224°
2026-05-05 02:54 39.85837 -106.58832 13169 ft 259 kts 221°
2026-05-05 02:54 39.84393 -106.60222 12837 ft 258 kts 221°
2026-05-05 02:54 39.82938 -106.61566 12603 ft 257 kts 213°
2026-05-05 02:55 39.80591 -106.62267 12202 ft 263 kts 189°
2026-05-05 02:55 39.78801 -106.62473 12014 ft 254 kts 192°
2026-05-05 02:55 39.77067 -106.62720 11834 ft 247 kts 192°
2026-05-05 02:55 39.75383 -106.62969 11662 ft 241 kts 192°
2026-05-05 02:56 39.74291 -106.63138 11548 ft 237 kts 192°
2026-05-05 02:56 39.72677 -106.63387 11385 ft 230 kts 192°
2026-05-05 02:56 39.71114 -106.63635 11242 ft 223 kts 192°
2026-05-05 02:56 39.69642 -106.64080 11060 ft 215 kts 212°
2026-05-05 02:57 39.68152 -106.65920 10353 ft 233 kts 231°
2026-05-05 02:57 39.67127 -106.67488 10325 ft 221 kts 232°
2026-05-05 02:57 39.66626 -106.68656 10191 ft 222 kts 252°
2026-05-05 02:57 39.66366 -106.70651 9897 ft 223 kts 266°
2026-05-05 02:58 39.66226 -106.72597 9750 ft 218 kts 262°
2026-05-05 02:58 39.66037 -106.74524 9479 ft 211 kts 262°
2026-05-05 02:58 39.65848 -106.76400 9124 ft 208 kts 262°
2026-05-05 02:58 39.65657 -106.78281 8683 ft 212 kts 262°
2026-05-05 02:59 39.65465 -106.80130 8302 ft 202 kts 262°
2026-05-05 02:59 39.65281 -106.81908 7889 ft 196 kts 261°
2026-05-05 02:59 39.65097 -106.83629 7507 ft 189 kts 262°
2026-05-05 02:59 39.64918 -106.85299 7221 ft 186 kts 262°
2026-05-05 03:00 39.64748 -106.86901 7014 ft 173 kts 264°
2026-05-05 03:00 39.64628 -106.88376 6916 ft 161 kts 263°
2026-05-05 03:00 39.64477 -106.89862 6652 ft 173 kts 265°
2026-05-05 03:00 39.64301 -106.91293 6528 ft 144 kts 269°
2026-05-05 03:01 39.64190 -106.92395 6487 ft 101 kts 262°
2026-05-05 03:01 39.64114 -106.93062 6475 ft 46 kts 255°
2026-05-05 03:01 39.64025 -106.93144 6470 ft 7 kts 140°
2026-05-05 03:01 39.64005 -106.93101 6468 ft 6 kts 99°
2026-05-05 03:02 39.64006 -106.93034 6475 ft 10 kts 87°
2026-05-05 03:02 39.64016 -106.92927 6477 ft 15 kts 80°
2026-05-05 03:02 39.64037 -106.92763 6465 ft 22 kts 80°
2026-05-05 03:02 39.64065 -106.92548 6483 ft 26 kts 81°